Location: Costa Mesa
(33.6411°N, 117.9187°W)
Time: 23:17:45
(UTC+00:00)

Atlas Centaur 2 - Pass Details

Date: 10 September 2024
Orbit: 457 x 1270 km, 30.4° (Epoch: 09 October)

Event Time Altitude Azimuth Distance (km) Brightness Sun altitude
Exits shadow 12:57:58 - 249° (WSW) 2,503 4.0 -7.9°
Reaches altitude 10° 12:58:12 10° 248° (WSW) 2,426 3.9 -7.8°
Maximum altitude 13:04:00 61° 170° (S) 1,094 2.8 -6.6°
Drops below altitude 10° 13:11:15 10° 92° (E) 3,001 6.8 -5.1°
Sets 13:14:21 0° 89° (E) 4,059 8.3 -4.5°
